Location: Unspecified
(56.5167°N, 0.0000°E)
Time: 20:13:06
(UTC+02:00)

ISS - Visible Passes

Search period start: 30 July 2015 00:00
Search period end: 09 August 2015 00:00
Orbit: 402 x 403 km, 51.6° (Epoch: 30 July)

Date Brightness Start Highest point End Pass type
(mag) Time Alt. Az. Time Alt. Az. Time Alt. Az.
30 Jul -2.6 02:16:46 32° SSE 02:16:46 32° SSE 02:19:21 10° ESE visible
30 Jul -2.5 03:49:28 10° WSW 03:52:21 29° SSW 03:55:16 10° SE visible
31 Jul -0.9 01:26:10 11° ESE 01:26:10 11° ESE 01:26:24 10° ESE visible
31 Jul -2.7 02:58:51 30° SSW 02:59:30 33° S 03:02:29 10° ESE visible
31 Jul -1.8 04:33:03 10° WSW 04:35:21 18° SSW 04:37:39 10° SSE visible
01 Aug -2.3 00:27:55 10° SW 00:30:37 24° SSE 00:30:44 24° SSE visible
01 Aug -0.7 02:10:22 - ESE 02:10:22 - ESE 02:03:28 10° WSW visible
01 Aug -2.0 03:43:16 21° S 03:43:16 21° S 03:45:09 10° SE visible
01 Aug -1.9 23:35:19 10° SSW 23:37:42 19° SSE 23:40:05 10° ESE visible
02 Aug -2.7 01:10:34 10° WSW 01:13:20 33° S 01:13:20 33° S visible
03 Aug -2.5 00:17:35 10° SW 00:20:29 30° SSE 00:22:13 19° ESE visible
03 Aug -1.6 01:53:30 10° WSW 01:54:47 19° WSW 01:54:47 19° WSW visible
03 Aug -2.2 23:24:38 10° SW 23:27:23 25° SSE 23:30:10 10° ESE visible
04 Aug -2.7 01:00:20 10° WSW 01:03:20 34° S 01:03:23 34° S visible
05 Aug -2.7 00:07:08 10° WSW 00:10:08 34° S 00:11:49 20° ESE visible
05 Aug -1.4 01:43:16 10° WSW 01:44:23 17° WSW 01:44:23 17° WSW visible
05 Aug -2.5 23:13:56 10° SW 23:16:52 31° S 23:19:49 10° ESE visible
06 Aug -2.5 00:49:53 10° WSW 00:52:44 31° SSW 00:52:44 31° SSW visible
06 Aug -2.6 23:56:30 10° WSW 23:59:30 34° S 00:01:01 22° SE visible
07 Aug -1.0 01:32:51 10° WSW 01:33:34 14° WSW 01:33:34 14° WSW visible
07 Aug -2.6 23:03:05 10° WSW 23:06:06 34° S 23:09:07 10° ESE visible
08 Aug -2.1 00:39:15 10° WSW 00:41:47 25° SSW 00:41:47 25° SSW visible
08 Aug -2.4 23:45:39 10° WSW 23:48:35 31° S 23:49:56 22° SSE visible
